sat.trackr.live / text

‹ back to catalog

STARLINK-36408

NORAD 67473 · 2026-008AE

PAYLOAD ACTIVE UNKNOWN

§ Identity

Operator
Country
US
Launch date
2026-01-14
Launch site
AFETR
Launch vehicle
Mass (kg)
RCS (m²)

Purposes: comms

External: N2YO · Heavens-Above · Gunter

§ Orbital elements

Epoch: 2026-05-25T00:18:49.261824Z

Period
94.27 min
Inclination
43.0032°
Eccentricity
0.0002173
Mean motion
15.27593305 rev/d
Perigee alt
481.5 km
Apogee alt
484.5 km
Semi-major
6,861.1 km
B*
6.8296e-4
RAAN
134.2829°
Arg perigee
261.7128°
Mean anomaly
98.3477°
Rev number
2,124

§ Raw data

STARLINK-364081 67473U 26008AE  26145.01307016  .00018587  00000+0  68296-3 0  99912 67473  43.0032 134.2829 0002173 261.7128  98.3477 15.27593305 21247

JSON: /api/v1/satellites/67473 · /tle

For live sub-satellite position, see the globe view (requires WebGL).

§ Visibility from observer

Set your observer location to see the next 7 days of passes ≥ 10°. The values pass through the URL so the page stays shareable.

No JS? Fill the form by hand. The geolocation button needs JavaScript.